OpenBCM V1.08-5-g2f4a (Linux)

Packet Radio Mailbox

IZ3LSV

[San Dona' di P. JN]

 Login: GUEST





  
I0OJJ  > KEPS     07.12.24 15:12l 359 Lines 17178 Bytes #166 (0) @ AMSAT
BID : ORB24340.1
Read: GUEST
Subj: 2Line Orbital Elements 24340.AMSAT
Path: IZ3LSV<ED1ZAC<GB7CIP<I0OJJ
Sent: 241205/1017z @:I0OJJ.ITA.EU [Rome] obcm1.08-6-g5b69
From: I0OJJ @ I0OJJ.ITA.EU (Gustavo)
To:   KEPS @ AMSAT
X-Info: Sent with login password


QST de W1STR

AMSAT Orbital Elements for Amateur Satellites in TLE Format
From Orbital Analysis Office
New England Sci-Tech STEM Education Center
Natick, MA December 05, 2024
To all radio amateurs


These element sets describe the orbits of various satellites 
in use by the amateur radio community. For details see:
www.amsat.org/keplerian-elements-formats/

A daily update of element sets is available at:
www.amsat.org/tle/daily-bulletin.txt
or without bulletin text:
www.amsat.org/tle/dailytle.txt


AO-07
1 07530U 74089B   24339.60913330 -.00000033  00000-0  82683-4 0  9997
2 07530 101.9897 335.9224 0012356 118.4573 352.2808 12.53683360290394
UO-11
1 14781U 84021B   24339.49537626  .00003573  00000-0  39326-3 0  9993
2 14781  97.7298 304.0267 0006467 227.6527 132.4143 14.88180304173805
AO-27
1 22825U 93061C   24339.56526561  .00000396  00000-0  16875-3 0  9993
2 22825  98.7662  33.9340 0007481 304.7960  55.2517 14.30672799626973
FO-29
1 24278U 96046B   24339.76877669  .00000044  00000-0  77611-4 0  9999
2 24278  98.5874 252.0906 0350950 106.4181 257.5833 13.53223864397754
NOAA-15
1 25338U 98030A   24339.79668155  .00000457  00000-0  20626-3 0  9994
2 25338  98.5539   3.2639 0010237 180.0266 180.0916 14.26816301381763
GO-32
1 25397U 98043D   24339.54318678  .00000332  00000-0  16398-3 0  9991
2 25397  98.9470 309.0260 0002056  54.0354 306.1014 14.24204554371668
ISS
1 25544U 98067A   24339.76032953  .00017305  00000-0  30797-3 0  9991
2 25544  51.6387 190.3157 0006984 301.4763 161.1609 15.50217009485000
NO-44
1 26931U 01043C   24339.48919611  .00000699  00000-0  29357-3 0  9992
2 26931  67.0511 251.4938 0006958 261.0646  98.9668 14.31528157210329
SO-50
1 27607U 02058C   24339.58736405  .00003280  00000-0  44208-3 0  9990
2 27607  64.5557  57.2438 0033787  26.3032 333.9779 14.80443448181741
CO-55
1 27844U 03031E   24339.75760977  .00001018  00000-0  46491-3 0  9998
2 27844  98.6781 344.4703 0009990  16.2631 343.8867 14.23681757112082
CO-57
1 27848U 03031J   24339.48076759  .00000896  00000-0  41638-3 0  9991
2 27848  98.6809 344.3377 0010185  32.8927 327.2883 14.23062535111757
RS-22
1 27939U 03042A   24339.80085892  .00003310  00000-0  54355-3 0  9992
2 27939  98.3076 139.0813 0010726 238.8044 228.1173 14.71313386133351
NOAA-18
1 28654U 05018A   24339.82279356  .00000491  00000-0  28475-3 0  9995
2 28654  98.8617  55.2760 0013323 301.1394  58.8471 14.13442462  7364
CO-58
1 28895U 05043F   24339.64918944  .00004903  00000-0  83294-3 0  9995
2 28895  98.2238 116.1746 0015189 175.5333 184.6010 14.69542381 19703
CO-65
1 32785U 08021C   24339.55977732  .00010295  00000-0  81525-3 0  9993
2 32785  97.7717 304.1060 0012853 127.9806 232.2581 15.00717020900994
AAUSAT2
1 32788U 08021F   24339.47863819  .00073736  00000-0  21122-2 0  9992
2 32788  97.6047 322.2125 0002343  33.8915 326.2478 15.35639889904272
CO-66
1 32791U 08021J   24339.85602793  .00020395  00000-0  12240-2 0  9994
2 32791  97.7113 311.0379 0007665  85.7879 274.4226 15.10935015902305
RS-30
1 32953U 08025A   24339.68979701  .00000036  00000-0  18316-3 0  9996
2 32953  82.5031 343.4352 0020671  93.0590 267.2855 12.43154540750319
PRISM
1 33493U 09002B   24339.55389870  .00077849  00000-0  20012-2 0  9991
2 33493  98.1777  43.7536 0007840  15.7518 344.3967 15.38957277865040
NOAA-19
1 33591U 09005A   24339.79926879  .00000444  00000-0  26095-3 0  9990
2 33591  99.0257  37.2319 0014059 167.6882 192.4636 14.13219861815727
SRMSAT
1 37841U 11058D   24339.33136266  .00000729  00000-0  25321-3 0  9993
2 37841  19.9706 207.5649 0011812 165.2315 350.5106 14.11301965678626
RS-40
1 38735U 12041C   24339.78823596  .00000071  00000-0  44639-3 0  9990
2 38735  82.4774  63.5051 0017382 204.0182 156.0088 12.42621558560452
ZACUBE-1
1 39417U 13066B   24339.58713717  .00011096  00000-0  10462-2 0  9992
2 39417  97.7573 292.3444 0046059 317.9864  41.7826 14.93150651596973
Delfi-N3xt
1 39428U 13066N   24339.72355649  .00015329  00000-0  17336-2 0  9996
2 39428  97.8367 254.0790 0090046 253.9899 105.1383 14.83613495591504
GOMX-1
1 39430U 13066Q   24339.72936936  .00004394  00000-0  70346-3 0  9994
2 39430  97.7040 203.7460 0137345  69.8372 291.7546 14.66072862588016
LO-74
1 39440U 13066AA  24339.39764385  .00010746  00000-0  11620-2 0  9992
2 39440  97.8316 279.8966 0068007  76.6840 284.1948 14.86760858593595
AO-73
1 39444U 13066AE  24339.82786630  .00015417  00000-0  13091-2 0  9995
2 39444  97.7418 296.2775 0041490 293.8218  65.8657 14.97310683596189
DTUSAT-2
1 40030U 14033W   24339.12453414  .00016009  00000-0  11793-2 0  9992
2 40030  98.0319 296.8418 0009917 345.2261  14.8672 15.03389365568185
EO-80
1 40032U 14033Y   24339.42091495  .00015157  00000-0  11148-2 0  9991
2 40032  98.0238 297.0529 0006637 276.1856  83.8612 15.03482986568207
XW-2C
1 40906U 15049H   24339.82306384  .00132950  00000-0  11688-2 0  9999
2 40906  97.4566   3.4496 0006148  57.3879 302.7975 15.68352275510948
LILACSAT-2
1 40908U 15049K   24339.80584412  .00018341  00000-0  58745-3 0  9992
2 40908  97.5191 350.3968 0012880 104.5502 255.7169 15.32353742509560
IO-86
1 40931U 15052B   24337.09180034  .00002217  00000-0  20975-3 0  9992
2 40931   5.9986 232.5457 0013173 302.5393  57.3463 14.78392648496340
ChubuSat-2
1 41338U 16012B   24339.76179098  .00010484  00000-0  58707-3 0  9994
2 41338  31.0018  10.0938 0010881 154.6813 205.4360 15.12115521483404
ChubuSat-3
1 41339U 16012C   24339.79160076  .00009593  00000-0  55218-3 0  9997
2 41339  31.0083   9.7605 0010959 157.0082 203.1049 15.11103159483372
Horyu-4
1 41340U 16012D   24339.58700643  .00029499  00000-0  11303-2 0  9999
2 41340  31.0010 298.5663 0009703 272.2295  87.7236 15.25302820484104
Lapan A3
1 41603U 16040E   24339.82810865  .00006758  00000-0  25263-3 0  9991
2 41603  97.1389 346.0483 0010440 206.6107 153.4599 15.27602685469256
Pratham
1 41783U 16059A   24339.57719972  .00002039  00000-0  38018-3 0  9999
2 41783  97.8291 350.9450 0031532 197.2777 162.7357 14.65734300437492
CAS-2T
1 41847U 16066G   24339.60806244  .00002365  00000-0  34718-3 0  9996
2 41847  98.4435  49.6177 0350152  23.8123 337.8833 14.42497801424058
CAS-4B
1 42759U 17034B   24339.71208674  .00043945  00000-0  10532-2 0  9996
2 42759  43.0154 335.2082 0012788  71.8654 288.3594 15.40621171413584
CAS-4A
1 42761U 17034D   24339.69430262  .00042445  00000-0  10075-2 0  9992
2 42761  43.0189 333.4636 0013580  81.3118 278.9276 15.40914401413596
D-SAT
1 42794U 17036AF  24339.52062939  .00013883  00000-0  86483-3 0  9995
2 42794  97.4959 315.7416 0099231 289.1186  69.9318 15.05600621406302
TechnoSat
1 42829U 17042E   24339.73927298  .00007411  00000-0  61033-3 0  9996
2 42829  97.3856 151.6298 0011834 218.3993 141.6390 14.99298157402701
AO-91
1 43017U 17073E   24339.62074073  .00013492  00000-0  74578-3 0  9996
2 43017  97.5490 209.4383 0194898  81.1357 281.1877 14.99163609381143
S-Net D
1 43186U 18014G   24339.45511888  .00010907  00000-0  70518-3 0  9998
2 43186  97.5766 238.5345 0010921 135.9246 224.2855 15.08330320374138
S-Net B
1 43187U 18014H   24339.72384943  .00010123  00000-0  65484-3 0  9995
2 43187  97.5772 238.7613 0011778 131.8571 228.3664 15.08321868374177
S-Net A
1 43188U 18014J   24339.45604639  .00010848  00000-0  70119-3 0  9998
2 43188  97.5782 238.6249 0011676 133.0201 227.2007 15.08333191374131
S-Net C
1 43189U 18014K   24339.46052058  .00010836  00000-0  70043-3 0  9995
2 43189  97.5795 238.6107 0013434 127.8745 232.3700 15.08314072372689
Ten-Koh
1 43677U 18084G   24339.43913028  .00006987  00000-0  58822-3 0  9997
2 43677  98.0788 138.4913 0013353 172.3836 187.7590 14.98497978332194
PO-101
1 43678U 18084H   24339.77165872  .00003224  00000-0  28705-3 0  9999
2 43678  98.0871 143.1480 0008459 179.8207 180.3018 14.96780196332420
QO-100
1 43700U 18090A   24339.59497795  .00000166  00000-0  00000-0 0  9991
2 43700   0.0166   2.0062 0001897 291.7139  20.1813  1.00270864 22069
MinXSS-2
1 43758U 18099A   24339.73813276  .00022850  00000-0  11609-2 0  9998
2 43758  97.5309  40.0953 0015175  90.7688 269.5284 15.16784261328561
AO-95
1 43770U 18099N   24339.60775305  .00016173  00000-0  95620-3 0  9995
2 43770  97.5217  34.2022 0013172 135.1115 225.1183 15.11475425328255
RANGE-B
1 43772U 18099Q   24339.59951617  .00028863  00000-0  13732-2 0  9999
2 43772  97.5012  38.6299 0004797  45.2203 314.9421 15.19119041328503
RANGE-A
1 43773U 18099R   24339.69940340  .00010098  00000-0  69707-3 0  9997
2 43773  97.4768  27.6034 0013268 110.9212 249.3437 15.05895388328068
MOVE-II
1 43780U 18099Y   24339.44840449  .00061423  00000-0  19614-2 0  9996
2 43780  97.4965  42.3210 0005241 100.3173 259.8660 15.32239966328839
SNUSat 2
1 43782U 18099AA  24339.62487639  .00014476  00000-0  89726-3 0  9994
2 43782  97.4896  32.3611 0014656  80.6113 279.6772 15.09764255328249
SnugLite
1 43784U 18099AC  24339.67473563  .00016152  00000-0  94955-3 0  9995
2 43784  97.4718  31.7229 0005403  87.2321 272.9528 15.11740523328347
ITASat 1
1 43786U 18099AE  24339.59483322  .00011863  00000-0  75715-3 0  9999
2 43786  97.4863  32.3051 0016886 127.6189 232.6576 15.08710303328220
EAGLET 1
1 43790U 18099AJ  24339.39428327  .00008945  00000-0  61418-3 0  9998
2 43790  97.5054  32.5134 0014200 108.8724 251.4044 15.06121169327868
ESEO
1 43792U 18099AL  24339.60016916  .00004066  00000-0  32028-3 0  9996
2 43792  97.4844  28.2609 0010130  75.9803 284.2547 15.01288191327759
CSIM
1 43793U 18099AM  24339.16046304  .00066738  00000-0  21618-2 0  9998
2 43793  97.5113  43.8756 0009037  78.2636 281.9619 15.31729707328638
